Back to catalog

METEOR 2-8 DEB

LostPO
NORAD 36347·DEBRIS·🇷🇺 Russia

Launched Mar 25, 1982 from Plesetsk Cosmodrome

Loading…

Next Passes (next 24 hours)

TLE

StaleSource: Space-Track

Epoch: Sep 30, 2023, 05:05 UTC

1 36347U 82025AH  23273.21237363  .00006366  00000-0  38357-2 0  9993
2 36347  82.5312  83.7817 0014057 225.9620 134.0396 14.06506213580044

Track METEOR 2-8 DEB in real time with AllMySat

Download on the App Store